Delta Virtual Airport Information Service

Madrid Barajas Airport

ICAO: LEMD Country: Spain
Latitude: 40.4935 Longitude: -3.56676
Latest Arrival : DAL126 (2) (KJFK-LEMD) Latest Departure : AEA15 (LEMD-MHLM)


WX CaptureLIVE
Data provided by noaa.gov | Fetched at 07:25:53

METAR : LEMD 061300Z 03002KT 9999 SCT035 BKN055 15/05 Q1020 NOSIG

TAF : LEMD 061100Z 0612/0718 15006KT CAVOK TX16/0615Z TN07/0707Z PROB30 TEMPO 0621/0704 SHRA SCT030TCU


Runway Data for LEMD
Data provided by openaviationdata.com

Runway ID Mag Var Hdg Length Elevation Surface ILS Freq ILS Id ILS Slope
14L -2 144° 12205 ft 1999 ft Asphalt -- -- --
14R -2 144° 13550 ft 1999 ft Asphalt -- -- --
18L -2 182° 12138 ft 1999 ft Asphalt 111.5 IML 3
18R -2 182° 14600 ft 1999 ft Asphalt 110.7 IMR 3
32L -2 324° 13550 ft 1999 ft Asphalt 109.9 MAA 3
32R -2 324° 12205 ft 1999 ft Asphalt 109.1 MBB 3
36L -2 14600 ft 1999 ft Asphalt -- -- --
36R -2 12138 ft 1999 ft Asphalt -- -- --

Madrid Barajas Airport, Spain
Use only for reference purposes



Not for navigational purposes.